Location: Arcones
(41.1182°N, 3.7238°W)
Time: 21:33:25
(UTC+00:00)

SKYMED 2 - Pass Details

Date: 11 December 2025
Orbit: 622 x 623 km, 97.9° (Epoch: 12 January)

Event Time Altitude Azimuth Distance (km) Brightness Sun altitude
Exits shadow 18:35:21 13° 7° (N) 1,828 5.8 -19.8°
Maximum altitude 18:39:15 68° 285° (WNW) 673 3.8 -20.5°
Drops below altitude 10° 18:43:32 10° 203° (SSW) 1,984 6.6 -21.3°
Sets 18:45:43 0° 201° (SSW) 2,886 7.4 -21.7°
